Time,TemperatureF,DewpointF,PressureIn,WindDirection,WindDirectionDegrees,WindSpeedMPH,WindSpeedGustMPH,Humidity,HourlyPrecipIn,Conditions,Clouds,dailyrainin,SoftwareType,DateUTC
2013-05-25 00:02:00,73.9,65.5,30.25,WNW,292,0.0,0.0,75,0.08,,,0.00,WUHU21623XXSP,2013-05-25 05:02:00,
2013-05-25 00:03:00,73.9,65.5,30.24,WNW,292,0.0,0.0,75,0.08,,,0.00,WUHU21623XXSP,2013-05-25 05:03:00,
2013-05-25 00:04:00,73.9,65.5,30.24,NNW,337,0.0,0.0,75,0.08,,,0.00,WUHU21623XXSP,2013-05-25 05:04:00,
2013-05-25 00:07:00,73.9,65.5,30.25,North,0,0.0,0.0,75,0.04,,,0.00,WUHU21623XXSP,2013-05-25 05:07:00,
2013-05-25 00:08:00,73.9,65.5,30.25,North,0,0.0,0.0,75,0.04,,,0.00,WUHU21623XXSP,2013-05-25 05:08:00,
2013-05-25 00:09:00,73.8,65.4,30.25,North,0,0.0,0.0,75,0.02,,,0.00,WUHU21623XXSP,2013-05-25 05:09:00,
2013-05-25 00:12:00,73.8,65.4,30.24,NW,315,0.0,0.0,75,0.02,,,0.00,WUHU21623XXSP,2013-05-25 05:12:00,
2013-05-25 00:13:00,73.6,65.2,30.24,NNW,337,0.0,0.0,75,0.02,,,0.00,WUHU21623XXSP,2013-05-25 05:13:00,
2013-05-25 00:14:00,73.6,65.2,30.24,NNW,337,0.0,0.0,75,0.02,,,0.00,WUHU21623XXSP,2013-05-25 05:14:00,
2013-05-25 00:17:00,73.6,65.2,30.24,West,270,0.0,0.0,75,0.02,,,0.00,WUHU21623XXSP,2013-05-25 05:17:00,
2013-05-25 00:18:00,73.6,65.2,30.24,West,270,0.0,0.0,75,0.02,,,0.00,WUHU21623XXSP,2013-05-25 05:18:00,
2013-05-25 00:19:00,73.6,65.2,30.24,West,270,0.0,0.0,75,0.02,,,0.00,WUHU21623XXSP,2013-05-25 05:19:00,
2013-05-25 00:23:00,73.6,65.2,30.25,SSW,202,0.0,0.0,75,0.02,,,0.00,WUHU21623XXSP,2013-05-25 05:23:00,
2013-05-25 00:24:00,73.6,65.2,30.25,SSW,202,0.0,0.0,75,0.00,,,0.00,WUHU21623XXSP,2013-05-25 05:24:00,
2013-05-25 00:28:00,73.8,65.4,30.24,SW,225,2.0,3.0,75,0.00,,,0.00,WUHU21623XXSP,2013-05-25 05:28:00,
2013-05-25 00:29:00,73.8,65.4,30.24,SW,225,2.0,3.0,75,0.00,,,0.00,WUHU21623XXSP,2013-05-25 05:29:00,
2013-05-25 00:30:00,73.8,65.4,30.24,SW,236,2.0,3.0,75,0.00,,,0.00,WUHU21623XXSP,2013-05-25 05:30:00,
2013-05-25 00:33:00,73.8,65.4,30.23,SW,225,4.0,4.0,75,0.00,,,0.00,WUHU21623XXSP,2013-05-25 05:33:00,
2013-05-25 00:34:00,73.8,65.4,30.23,SSW,201,3.0,4.0,75,0.00,,,0.00,WUHU21623XXSP,2013-05-25 05:34:00,
2013-05-25 00:35:00,73.8,65.4,30.23,SSW,193,2.0,4.0,75,0.00,,,0.00,WUHU21623XXSP,2013-05-25 05:35:00,
2013-05-25 00:38:00,73.8,65.4,30.24,ESE,112,0.0,4.0,75,0.02,,,0.02,WUHU21623XXSP,2013-05-25 05:38:00,
2013-05-25 00:39:00,73.8,65.4,30.24,ESE,112,0.0,4.0,75,0.02,,,0.02,WUHU21623XXSP,2013-05-25 05:39:00,
2013-05-25 00:40:00,73.6,65.2,30.24,ESE,112,0.0,4.0,75,0.02,,,0.02,WUHU21623XXSP,2013-05-25 05:40:00,
2013-05-25 00:43:00,73.6,65.2,30.22,West,270,0.0,2.0,75,0.02,,,0.02,WUHU21623XXSP,2013-05-25 05:43:00,
2013-05-25 00:44:00,73.6,65.2,30.22,West,270,0.0,2.0,75,0.02,,,0.02,WUHU21623XXSP,2013-05-25 05:44:00,
2013-05-25 00:45:00,73.6,65.2,30.22,SW,225,0.0,2.0,75,0.02,,,0.02,WUHU21623XXSP,2013-05-25 05:45:00,
2013-05-25 00:49:00,73.8,65.4,30.23,South,180,0.0,2.0,75,0.02,,,0.02,WUHU21623XXSP,2013-05-25 05:49:00,
2013-05-25 00:50:00,73.8,65.4,30.23,South,180,0.0,2.0,75,0.02,,,0.02,WUHU21623XXSP,2013-05-25 05:50:00,
2013-05-25 00:54:00,73.8,65.4,30.23,South,180,0.0,1.0,75,0.02,,,0.02,WUHU21623XXSP,2013-05-25 05:54:00,
2013-05-25 00:55:00,73.8,65.4,30.23,SSE,157,0.0,1.0,75,0.02,,,0.02,WUHU21623XXSP,2013-05-25 05:55:00,
2013-05-25 00:57:00,73.8,65.4,30.23,South,180,1.0,1.0,75,0.02,,,0.02,WUHU21623XXSP,2013-05-25 05:57:00,
2013-05-25 00:59:00,73.8,65.4,30.23,WSW,247,3.0,3.0,75,0.02,,,0.02,WUHU21623XXSP,2013-05-25 05:59:00,
2013-05-25 01:00:00,73.8,65.4,30.22,WSW,247,3.0,3.0,75,0.02,,,0.02,WUHU21623XXSP,2013-05-25 06:00:00,
2013-05-25 01:02:00,73.8,65.4,30.22,WNW,292,0.0,3.0,75,0.02,,,0.02,WUHU21623XXSP,2013-05-25 06:02:00,
2013-05-25 01:05:00,73.6,65.2,30.21,WSW,247,2.0,3.0,75,0.02,,,0.02,WUHU21623XXSP,2013-05-25 06:05:00,
2013-05-25 01:07:00,73.4,65.0,30.21,WSW,252,1.0,3.0,75,0.02,,,0.02,WUHU21623XXSP,2013-05-25 06:07:00,
2013-05-25 01:10:00,73.2,65.2,30.20,WNW,292,2.0,2.0,76,0.02,,,0.02,WUHU21623XXSP,2013-05-25 06:10:00,
2013-05-25 01:11:00,73.2,65.2,30.20,WNW,282,2.0,2.0,76,0.02,,,0.02,WUHU21623XXSP,2013-05-25 06:11:00,
2013-05-25 01:12:00,73.0,65.0,30.20,WNW,292,3.0,3.0,76,0.02,,,0.02,WUHU21623XXSP,2013-05-25 06:12:00,
2013-05-25 01:15:00,73.0,65.4,30.19,WNW,286,3.0,4.0,77,0.02,,,0.02,WUHU21623XXSP,2013-05-25 06:15:00,
2013-05-25 01:17:00,72.9,65.2,30.19,WSW,247,4.0,4.0,77,0.02,,,0.02,WUHU21623XXSP,2013-05-25 06:17:00,
2013-05-25 01:20:00,72.7,65.1,30.19,West,270,20.0,20.0,77,0.02,,,0.02,WUHU21623XXSP,2013-05-25 06:20:00,
2013-05-25 01:21:00,72.7,65.1,30.19,West,270,20.0,20.0,77,0.02,,,0.02,WUHU21623XXSP,2013-05-25 06:21:00,
2013-05-25 01:22:00,72.5,64.9,30.19,West,270,5.0,20.0,77,0.02,,,0.02,WUHU21623XXSP,2013-05-25 06:22:00,
2013-05-25 01:25:00,72.3,64.7,30.19,WSW,247,4.0,20.0,77,0.02,,,0.02,WUHU21623XXSP,2013-05-25 06:25:00,
2013-05-25 01:26:00,72.3,64.7,30.19,SW,225,3.0,20.0,77,0.02,,,0.02,WUHU21623XXSP,2013-05-25 06:26:00,
2013-05-25 01:27:00,72.3,64.7,30.19,SSW,202,5.0,20.0,77,0.02,,,0.02,WUHU21623XXSP,2013-05-25 06:27:00,
2013-05-25 01:31:00,72.3,64.7,30.19,SSE,157,7.0,7.0,77,0.02,,,0.02,WUHU21623XXSP,2013-05-25 06:31:00,
2013-05-25 01:32:00,72.3,64.7,30.20,SSW,202,0.0,7.0,77,0.02,,,0.02,WUHU21623XXSP,2013-05-25 06:32:00,
2013-05-25 01:33:00,72.3,64.7,30.20,SSW,202,0.0,7.0,77,0.02,,,0.02,WUHU21623XXSP,2013-05-25 06:33:00,
2013-05-25 01:36:00,72.3,64.7,30.20,SSW,202,0.0,7.0,77,0.02,,,0.02,WUHU21623XXSP,2013-05-25 06:36:00,
2013-05-25 01:38:00,72.3,64.7,30.20,North,0,0.0,7.0,77,0.00,,,0.02,WUHU21623XXSP,2013-05-25 06:38:00,
2013-05-25 01:41:00,72.5,64.9,30.20,North,0,0.0,0.0,77,0.00,,,0.02,WUHU21623XXSP,2013-05-25 06:41:00,
2013-05-25 01:43:00,72.5,64.9,30.20,North,0,0.0,0.0,77,0.00,,,0.02,WUHU21623XXSP,2013-05-25 06:43:00,
2013-05-25 01:46:00,72.5,64.9,30.20,North,0,3.0,3.0,77,0.00,,,0.02,WUHU21623XXSP,2013-05-25 06:46:00,
2013-05-25 01:47:00,72.5,64.9,30.20,North,0,3.0,3.0,77,0.00,,,0.02,WUHU21623XXSP,2013-05-25 06:47:00,
2013-05-25 01:48:00,72.5,64.9,30.20,North,0,3.0,3.0,77,0.00,,,0.02,WUHU21623XXSP,2013-05-25 06:48:00,
2013-05-25 01:49:00,72.5,64.9,30.20,North,0,3.0,3.0,77,0.00,,,0.02,WUHU21623XXSP,2013-05-25 06:49:00,
2013-05-25 01:50:00,72.5,64.9,30.18,North,0,0.0,0.0,77,0.00,,,0.02,WUHU21623XXSP,2013-05-25 06:50:00,
2013-05-25 01:51:00,72.5,64.9,30.18,North,0,0.0,3.0,77,0.00,,,0.02,WUHU21623XXSP,2013-05-25 06:51:00,
2013-05-25 01:52:00,72.5,64.9,30.18,North,0,0.0,3.0,77,0.00,,,0.02,WUHU21623XXSP,2013-05-25 06:52:00,
2013-05-25 01:53:00,72.5,64.9,30.18,North,0,0.0,0.0,77,0.00,,,0.02,WUHU21623XXSP,2013-05-25 06:53:00,
2013-05-25 01:54:00,72.5,64.9,30.18,North,0,0.0,0.0,77,0.00,,,0.02,WUHU21623XXSP,2013-05-25 06:54:00,
2013-05-25 01:56:00,72.5,64.9,30.18,North,0,0.0,0.0,77,0.00,,,0.02,WUHU21623XXSP,2013-05-25 06:56:00,
2013-05-25 01:57:00,72.5,64.9,30.18,North,0,0.0,0.0,77,0.00,,,0.02,WUHU21623XXSP,2013-05-25 06:57:00,
2013-05-25 01:59:00,72.5,64.9,30.18,North,0,0.0,0.0,77,0.00,,,0.02,WUHU21623XXSP,2013-05-25 06:59:00,